Regional Weather Roundup
Issued by NWS

Home | Current Version | Previous Version | Graphics & Text | Print | Product List | Glossary On
Versions: 1 2 3 4 5 6 7 8 9 10 11 12 13 14 15 16 17 18 19 20 21 22 23 24 25 26 27
000
ASUS45 KSLC 190810
RWRUT

UTAH REGIONAL WEATHER ROUNDUP
NATIONAL WEATHER SERVICE SALT LAKE CITY UT
200 AM MDT TUE SEP 19 2017

UTZ001>011-023>025-190900-

NORTHERN UTAH

CITY           SKY/WX    TMP DP  RH WIND       PRES   REMARKS
BRIGHAM CITY   CLOUDY    55  48  77 N13       29.79R
HILL AFB       LGT RAIN  54  50  87 E9        29.78F
LOGAN          LGT RAIN  53  51  93 N5        29.79R
OGDEN          LGT RAIN  56  50  80 SE9       29.77F
SALT LAKE CITY CLOUDY    62  48  60 N13       29.75F
TOOELE VALLEY  CLOUDY    59  48  67 CALM      29.77F
WENDOVER       CLOUDY    67  37  33 W22G29    29.73R
HEBER CITY     CLOUDY    68  32  26 SW24G33   29.77R
WEST JORDAN    CLOUDY    59  51  75 NE7       29.79S

$$

UTZ011>015-024>027-190900-

CENTRAL/NORTHEAST UTAH

CITY           SKY/WX    TMP DP  RH WIND       PRES   REMARKS
PROVO AIRPORT  CLOUDY    71  40  32 S26G37    29.74R
MOAB/CANYONLAN PTCLDY    67  29  24 SW7       29.81S
DELTA          CLOUDY    64  32  29 S23G33    29.80F
PRICE          PTCLDY    56  35  45 SE5       29.86F
ROOSEVELT      CLOUDY    52  37  58 W7        29.80S
VERNAL         CLOUDY    59  33  37 SW10      29.77S

$$

UTZ013>016-019>022-027-190900-

SOUTHERN UTAH

CITY           SKY/WX    TMP DP  RH WIND       PRES   REMARKS
BRYCE CANYON   CLEAR     50  30  46 S10       30.07S
CEDAR CITY     PTCLDY    61  34  36 S13       29.93R
MILFORD        PTCLDY    61  38  42 S12       29.87F
ST GEORGE      CLOUDY    73  36  25 S8        29.83R
HANKSVILLE     PTCLDY    72  32  23 SW18G32   29.85R
BLANDING         N/A     57  20  24 CALM      30.07R

$$

REGIONAL REPORTS     COLORADO/ARIZONA

CITY           SKY/WX    TMP DP  RH WIND       PRES   REMARKS
CRAIG, CO      CLOUDY    46  33  60 W6        29.87F
GRAND JUNCTION CLOUDY    61  29  29 SE7       29.84S
RIFLE, CO      CLOUDY    64  25  22 SW6       29.86F
MONTROSE, CO   CLOUDY    63  25  23 S10G21    29.96F
CORTEZ, CO     CLEAR     45  32  60 E6        30.04F
PAGE, AZ       CLEAR     67  24  19 S7        29.91R
GRAND CANYON   CLEAR     41  25  53 NE5       30.10F
KINGMAN, AZ    CLEAR     70  36  28 S12       29.91S
FLAGSTAFF, AZ  CLEAR     49  24  37 W9        30.15F

$$

REGIONAL REPORTS    NEVADA/IDAHO/WYOMING

CITY           SKY/WX    TMP DP  RH WIND       PRES   REMARKS
LAS VEGAS, NV  MOCLDY    79  39  23 S14G21    29.75F
ELY, NY        CLOUDY    62  28  27 SW21G29   29.87S
ELKO, NV       MOCLDY    58  31  35 W16       29.83R
POCATELLO, ID  LGT RAIN  50  46  86 SW16      29.79R
BURLEY, ID     LGT RAIN  43  41  93 W18G28    29.83R
FORT BRIDGER,  PTSUNNY   46  44  92 N8        29.87R
EVANSTON, WY   LGT RAIN  46  44  93 W17       29.88R
ROCK SPRINGS,  CLOUDY    50  39  66 SW6       29.83S
KEMMERER, WY   RAIN      43  39  87 W12       29.85F

$$




USA.gov is the U.S. government's official web portal to all federal, state and local government web resources and services.